Regional Weather Roundup
Issued by NWS

Home | Current Version | Previous Version | Text Only | Print | Product List | Glossary Off
Versions: 1 2 3 4 5 6 7 8 9 10 11 12 13 14 15 16 17 18 19 20 21 22 23 24 25 26 27 28 29 30 31 32 33 34 35 36 37 38 39 40 41 42 43 44 45 46 47 48 49 50

000
ASUS43 KOAX 211310
RWRNE

WEATHER ROUNDUP FOR NEBRASKA
NATIONAL WEATHER SERVICE OMAHA NE
700 AM CST SUN DEC 21 2014

NOTES: SATELLITE DATA IS BEING USED TO AUGMENT CLOUD COVER ABOVE
       12000 FEET.
       "FAIR" INDICATES FEW OR NO CLOUDS BELOW 12,000 FEET WITH NO
       SIGNIFICANT WEATHER AND/OR OBSTRUCTIONS TO VISIBILITY.

  * THESE STATIONS DO NOT REPORT WEATHER SUCH AS RAIN...SNOW OR FOG.

NEZ001>004-019>022-054>056-211400-
NEBRASKA PANHANDLE

CITY           SKY/WX    TMP DP  RH WIND       PRES   REMARKS
SCOTTSBLUFF    CLEAR     20  16  84 E7        29.69F WCI  11
ALLIANCE       PTCLDY    23  18  81 CALM      29.67F
CHADRON        CLEAR     23  19  85 SE3       29.64F
KIMBALL        PTCLDY    28  21  74 SW9       29.69F WCI  20
SIDNEY         CLEAR     21  16  81 SW10      29.73F WCI  10
$$

NEZ057>060-069>072-079>082-211400-
SOUTHWEST NEBRASKA

CITY           SKY/WX    TMP DP  RH WIND       PRES   REMARKS
NORTH PLATTE   PTCLDY    22  19  89 CALM      29.75F
IMPERIAL       CLEAR     26  22  84 CALM      29.75F
LEXINGTON      CLOUDY    31  30  94 S3        29.78F
MCCOOK         MOCLDY    27  25  92 SW6       29.79S WCI  20
OGALLALA       CLEAR     19  18  96 W8        29.74F WCI   9
$$

NEZ005>010-023>029-035>040-094-211400-
NORTH CENTRAL NEBRASKA

CITY           SKY/WX    TMP DP  RH WIND       PRES   REMARKS
VALENTINE      CLEAR     21  18  88 CALM      29.68F
AINSWORTH      PTCLDY    30  25  81 SW13      29.70F WCI  20
BROKEN BOW     CLOUDY    30  27  88 CALM      29.76F
O`NEILL        CLOUDY    28  28  99 S5        29.75S WCI  22
THEDFORD       MOCLDY    32  27  83 SW6       29.73F WCI  26
$$

NEZ041-046>049-061>064-073>077-083>087-211400-
SOUTH CENTRAL NEBRASKA

CITY           SKY/WX    TMP DP  RH WIND       PRES   REMARKS
GRAND ISLAND   CLOUDY    31  31 100 S5        29.83F FOG     WCI  26
AURORA         CLOUDY    34  34 100 S10       29.83F FOG     WCI  26
HASTINGS       CLOUDY    33  32  96 S6        29.82F FOG     WCI  28
HEBRON         CLOUDY    37  34  91 S13G18    29.89F FOG     WCI  28
HOLDREGE       CLOUDY    33  31  91 S8        29.80F WCI  26
KEARNEY *      CLOUDY    30  28  93 S9        29.81F WCI  22
YORK           CLOUDY    34  34 100 S13       29.85F FOG     WCI  25
$$

NEZ011>018-030>034-042>045-211400-
NORTHEAST NEBRASKA

CITY           SKY/WX    TMP DP  RH WIND       PRES   REMARKS
NORFOLK        FOG       32  32 100 S7        29.80F VSB 3/4 WCI  26
ALBION         FOG       28  27  93 S3        29.81F VSB 3/4
BLAIR          CLOUDY    39  37  93 S15       29.87F FOG     WCI  30
COLUMBUS *     CLOUDY    36  30  80 SW7       29.85S WCI  30
FREMONT        CLOUDY    39  37  93 S14G20    29.86F WCI  31
TEKAMAH        CLOUDY    38  36  92 S13       29.87F WCI  30
WAYNE          CLOUDY    34  33  99 S10       29.81F FOG     WCI  26
$$

NEZ050>053-065>068-078-088>093-211400-
SOUTHEAST NEBRASKA

CITY           SKY/WX    TMP DP  RH WIND       PRES   REMARKS
LINCOLN        CLOUDY    39  37  92 S13       29.90F WCI  31
OMAHA EPPLEY   CLOUDY    37  35  92 S14       29.91F FOG     WCI  28
BEATRICE       CLOUDY    38  37  94 SW14      29.91S WCI  30
FALLS CITY     CLOUDY    37  34  89 S14       29.97S WCI  28
NEBRASKA CITY  CLOUDY    35  35 100 S12       29.94S FOG     WCI  27
PLATTSMOUTH    CLOUDY    37  35  94 S13       29.91F FOG     WCI  28
$$

NEZ044-045-051>053-067-211400-
OMAHA AREA

CITY           SKY/WX    TMP DP  RH WIND       PRES   REMARKS
OMAHA EPPLEY   CLOUDY    37  35  92 S14       29.91F FOG     WCI  28
BLAIR          CLOUDY    39  37  93 S15       29.87F FOG     WCI  30
FREMONT        CLOUDY    39  37  93 S14G20    29.86F WCI  31
MILLARD        CLOUDY    39  37  92 SE9       29.90F FOG     WCI  32
OFFUTT AFB     CLOUDY    37  35  95 SE8       29.91F WCI  30
PLATTSMOUTH    CLOUDY    37  35  94 S13       29.91F FOG     WCI  28
WAHOO          CLOUDY    39  36  89 S14       29.87F WCI  30
$$


USA.gov is the U.S. government's official web portal to all federal, state and local government web resources and services.